Time,TemperatureF,DewpointF,PressureIn,WindDirection,WindDirectionDegrees,WindSpeedMPH,WindSpeedGustMPH,Humidity,HourlyPrecipIn,Conditions,Clouds,dailyrainin,SoftwareType,DateUTC
2013-03-03 00:00:00,43.7,26.8,-100.00,NW,315,0.0,0.0,51,0.00,,,0.00,meteohub,2013-03-03 06:00:00,
2013-03-03 00:02:00,43.7,26.8,-100.00,NW,315,0.0,0.0,51,0.00,,,0.00,meteohub,2013-03-03 06:02:00,
2013-03-03 00:10:00,43.3,26.4,-100.00,WNW,293,0.0,0.0,51,0.00,,,0.00,meteohub,2013-03-03 06:10:00,
2013-03-03 00:12:00,43.3,26.4,-100.00,WNW,293,0.0,0.0,51,0.00,,,0.00,meteohub,2013-03-03 06:12:00,
2013-03-03 00:14:00,43.3,26.4,-100.00,WNW,293,0.0,0.0,51,0.00,,,0.00,meteohub,2013-03-03 06:14:00,
2013-03-03 00:18:00,43.2,26.2,-100.00,NW,315,0.0,0.0,51,0.00,,,0.00,meteohub,2013-03-03 06:18:00,
2013-03-03 00:20:00,43.2,26.2,-100.00,WNW,293,0.0,0.0,51,0.00,,,0.00,meteohub,2013-03-03 06:20:00,
2013-03-03 00:24:00,43.0,26.6,-100.00,WNW,293,0.0,0.0,52,0.00,,,0.00,meteohub,2013-03-03 06:24:00,
2013-03-03 00:26:00,43.0,26.6,-100.00,WNW,293,0.0,0.0,52,0.00,,,0.00,meteohub,2013-03-03 06:26:00,
2013-03-03 00:28:00,42.8,26.4,-100.00,North,0,0.0,0.0,52,0.00,,,0.00,meteohub,2013-03-03 06:28:00,
2013-03-03 00:30:00,42.6,26.2,-100.00,North,0,0.0,0.0,52,0.00,,,0.00,meteohub,2013-03-03 06:30:00,
2013-03-03 00:32:00,42.6,26.2,-100.00,NNW,338,0.0,0.0,52,0.00,,,0.00,meteohub,2013-03-03 06:32:00,
2013-03-03 00:34:00,42.6,26.2,-100.00,NNW,338,0.0,0.0,52,0.00,,,0.00,meteohub,2013-03-03 06:34:00,
2013-03-03 00:36:00,42.6,26.2,-100.00,NNW,338,0.0,0.0,52,0.00,,,0.00,meteohub,2013-03-03 06:36:00,
2013-03-03 00:40:00,42.4,26.6,-100.00,NW,315,0.0,0.0,53,0.00,,,0.00,meteohub,2013-03-03 06:40:00,
2013-03-03 00:42:00,42.4,26.6,-100.00,NW,315,0.0,0.0,53,0.00,,,0.00,meteohub,2013-03-03 06:42:00,
2013-03-03 00:44:00,42.4,26.6,-100.00,NW,315,0.0,0.0,53,0.00,,,0.00,meteohub,2013-03-03 06:44:00,
2013-03-03 00:46:00,42.4,26.6,-100.00,NW,315,0.0,0.0,53,0.00,,,0.00,meteohub,2013-03-03 06:46:00,
2013-03-03 00:48:00,42.4,26.6,-100.00,NW,315,0.0,0.0,53,0.00,,,0.00,meteohub,2013-03-03 06:48:00,
2013-03-03 00:52:00,42.4,26.6,-100.00,NW,315,0.0,0.0,53,0.00,,,0.00,meteohub,2013-03-03 06:52:00,
2013-03-03 00:54:00,42.3,26.4,-100.00,NW,315,0.0,0.0,53,0.00,,,0.00,meteohub,2013-03-03 06:54:00,
2013-03-03 00:58:00,42.1,26.2,-100.00,NW,315,0.0,0.0,53,0.00,,,0.00,meteohub,2013-03-03 06:58:00,
2013-03-03 01:00:00,42.1,26.6,-100.00,NW,315,0.0,0.0,54,0.00,,,0.00,meteohub,2013-03-03 07:00:00,
2013-03-03 01:02:00,42.1,26.6,-100.00,NW,315,0.0,0.0,54,0.00,,,0.00,meteohub,2013-03-03 07:02:00,
2013-03-03 01:04:00,42.1,26.6,-100.00,NW,315,0.0,0.0,54,0.00,,,0.00,meteohub,2013-03-03 07:04:00,
2013-03-03 01:11:00,41.9,26.4,-100.00,NW,315,0.0,0.0,54,0.00,,,0.00,meteohub,2013-03-03 07:11:00,
2013-03-03 01:13:00,41.9,26.4,-100.00,NNE,23,0.0,0.0,54,0.00,,,0.00,meteohub,2013-03-03 07:13:00,
2013-03-03 01:15:00,41.9,26.4,-100.00,NNE,23,0.0,0.0,54,0.00,,,0.00,meteohub,2013-03-03 07:15:00,
2013-03-03 01:17:00,41.9,26.4,-100.00,NNE,23,0.0,0.0,54,0.00,,,0.00,meteohub,2013-03-03 07:17:00,
2013-03-03 01:23:00,41.7,26.8,-100.00,NNE,23,0.0,0.0,55,0.00,,,0.00,meteohub,2013-03-03 07:23:00,
2013-03-03 01:25:00,41.7,26.8,-100.00,NNE,23,0.0,0.0,55,0.00,,,0.00,meteohub,2013-03-03 07:25:00,
2013-03-03 01:27:00,41.5,26.6,-100.00,NNE,23,0.0,0.0,55,0.00,,,0.00,meteohub,2013-03-03 07:27:00,
2013-03-03 01:33:00,41.5,26.6,-100.00,WNW,293,0.0,0.0,55,0.00,,,0.00,meteohub,2013-03-03 07:33:00,
2013-03-03 01:39:00,41.4,26.4,-100.00,WNW,293,0.0,0.0,55,0.00,,,0.00,meteohub,2013-03-03 07:39:00,
2013-03-03 01:41:00,41.4,26.4,-100.00,WNW,293,0.0,0.0,55,0.00,,,0.00,meteohub,2013-03-03 07:41:00,
2013-03-03 01:43:00,41.2,26.2,-100.00,WNW,293,0.0,0.0,55,0.00,,,0.00,meteohub,2013-03-03 07:43:00,
2013-03-03 01:47:00,41.2,26.6,-100.00,WNW,293,0.0,0.0,56,0.00,,,0.00,meteohub,2013-03-03 07:47:00,
2013-03-03 01:53:00,41.2,26.6,-100.00,WNW,293,0.0,0.0,56,0.00,,,0.00,meteohub,2013-03-03 07:53:00,
2013-03-03 01:59:00,41.0,26.4,-100.00,WNW,293,0.0,0.0,56,0.00,,,0.00,meteohub,2013-03-03 07:59:00,
2013-03-03 02:01:00,41.0,26.4,-100.00,WNW,293,0.0,0.0,56,0.00,,,0.00,meteohub,2013-03-03 08:01:00,
2013-03-03 02:02:00,41.0,26.4,-100.00,WNW,293,0.0,0.0,56,0.00,,,0.00,meteohub,2013-03-03 08:02:00,
2013-03-03 02:13:00,40.8,26.4,-100.00,NW,315,0.0,0.0,56,0.00,,,0.00,meteohub,2013-03-03 08:13:00,
2013-03-03 02:17:00,40.8,26.4,-100.00,NW,315,0.0,-999.0,56,0.00,,,0.00,meteohub,2013-03-03 08:17:00,
2013-03-03 02:19:00,40.6,26.6,-100.00,NW,315,0.0,-999.0,57,0.00,,,0.00,meteohub,2013-03-03 08:19:00,
2013-03-03 02:21:00,40.6,26.6,-100.00,NW,315,0.0,0.0,57,0.00,,,0.00,meteohub,2013-03-03 08:21:00,
2013-03-03 02:25:00,40.6,26.6,-100.00,WNW,293,0.0,0.0,57,0.00,,,0.00,meteohub,2013-03-03 08:25:00,
2013-03-03 02:27:00,40.6,26.6,-100.00,WNW,293,0.0,0.0,57,0.00,,,0.00,meteohub,2013-03-03 08:27:00,
2013-03-03 02:29:00,40.5,26.4,-100.00,WNW,293,0.0,0.0,57,0.00,,,0.00,meteohub,2013-03-03 08:29:00,
2013-03-03 02:31:00,40.5,26.4,-100.00,WNW,293,0.0,0.0,57,0.00,,,0.00,meteohub,2013-03-03 08:31:00,
2013-03-03 02:33:00,40.5,26.4,-100.00,ENE,68,0.0,0.0,57,0.00,,,0.00,meteohub,2013-03-03 08:33:00,
2013-03-03 02:37:00,40.3,26.2,-100.00,NW,315,0.0,0.0,57,0.00,,,0.00,meteohub,2013-03-03 08:37:00,
2013-03-03 02:41:00,40.3,26.2,-100.00,NW,315,0.0,0.0,57,0.00,,,0.00,meteohub,2013-03-03 08:41:00,
2013-03-03 02:43:00,40.3,26.2,-100.00,WNW,293,0.0,0.0,57,0.00,,,0.00,meteohub,2013-03-03 08:43:00,
2013-03-03 02:45:00,40.3,26.2,-100.00,WNW,293,0.0,0.0,57,0.00,,,0.00,meteohub,2013-03-03 08:45:00,
2013-03-03 02:47:00,40.3,26.2,-100.00,WNW,293,0.0,0.0,57,0.00,,,0.00,meteohub,2013-03-03 08:47:00,
2013-03-03 02:53:00,40.3,26.2,-100.00,NW,315,0.0,0.0,57,0.00,,,0.00,meteohub,2013-03-03 08:53:00,
2013-03-03 02:55:00,40.3,26.6,-100.00,WNW,293,0.0,0.0,58,0.00,,,0.00,meteohub,2013-03-03 08:55:00,
2013-03-03 02:58:00,40.3,26.6,-100.00,WNW,293,0.0,0.0,58,0.00,,,0.00,meteohub,2013-03-03 08:58:00,
2013-03-03 03:02:00,40.3,26.6,-100.00,NW,315,0.0,0.0,58,0.00,,,0.00,meteohub,2013-03-03 09:02:00,
2013-03-03 03:04:00,40.1,26.6,-100.00,WNW,293,0.0,0.0,58,0.00,,,0.00,meteohub,2013-03-03 09:04:00,
2013-03-03 03:06:00,40.1,26.6,-100.00,WNW,293,0.0,0.0,58,0.00,,,0.00,meteohub,2013-03-03 09:06:00,
2013-03-03 03:08:00,40.1,26.6,-100.00,WNW,293,0.0,0.0,58,0.00,,,0.00,meteohub,2013-03-03 09:08:00,
2013-03-03 03:10:00,40.1,26.6,-100.00,WNW,293,0.0,0.0,58,0.00,,,0.00,meteohub,2013-03-03 09:10:00,
2013-03-03 03:14:00,40.1,26.6,-100.00,WNW,293,0.0,0.0,58,0.00,,,0.00,meteohub,2013-03-03 09:14:00,
2013-03-03 03:18:00,40.1,26.6,-100.00,WNW,293,0.0,0.0,58,0.00,,,0.00,meteohub,2013-03-03 09:18:00,
2013-03-03 03:20:00,40.1,26.6,-100.00,WNW,293,0.0,0.0,58,0.00,,,0.00,meteohub,2013-03-03 09:20:00,
2013-03-03 03:22:00,40.1,26.6,-100.00,NNW,338,0.0,0.0,58,0.00,,,0.00,meteohub,2013-03-03 09:22:00,
2013-03-03 03:26:00,40.1,26.6,-100.00,NNW,338,0.0,0.0,58,0.00,,,0.00,meteohub,2013-03-03 09:26:00,
2013-03-03 03:30:00,40.1,26.6,-100.00,NNW,338,0.0,0.0,58,0.00,,,0.00,meteohub,2013-03-03 09:30:00,
2013-03-03 03:32:00,40.1,27.0,-100.00,NNW,338,0.0,0.0,59,0.00,,,0.00,meteohub,2013-03-03 09:32:00,
2013-03-03 03:34:00,39.9,26.8,-100.00,NNW,338,0.0,0.0,59,0.00,,,0.00,meteohub,2013-03-03 09:34:00,
2013-03-03 03:38:00,40.1,26.6,-100.00,NW,315,0.0,0.0,58,0.00,,,0.00,meteohub,2013-03-03 09:38:00,
2013-03-03 03:42:00,40.1,26.6,-100.00,NW,315,0.0,0.0,58,0.00,,,0.00,meteohub,2013-03-03 09:42:00,
2013-03-03 03:44:00,40.1,26.6,-100.00,NW,315,0.0,0.0,58,0.00,,,0.00,meteohub,2013-03-03 09:44:00,
2013-03-03 03:46:00,40.1,26.6,-100.00,NW,315,0.0,0.0,58,0.00,,,0.00,meteohub,2013-03-03 09:46:00,
2013-03-03 03:50:00,40.1,26.6,-100.00,WNW,293,0.0,0.0,58,0.00,,,0.00,meteohub,2013-03-03 09:50:00,
2013-03-03 03:52:00,40.1,26.6,-100.00,WNW,293,0.0,0.0,58,0.00,,,0.00,meteohub,2013-03-03 09:52:00,
2013-03-03 03:54:00,40.3,26.6,-100.00,WNW,293,0.0,0.0,58,0.00,,,0.00,meteohub,2013-03-03 09:54:00,
2013-03-03 03:56:00,40.3,26.6,-100.00,WNW,293,0.0,0.0,58,0.00,,,0.00,meteohub,2013-03-03 09:56:00,
2013-03-03 04:00:00,40.3,26.6,-100.00,WNW,293,0.0,0.0,58,0.00,,,0.00,meteohub,2013-03-03 10:00:00,
2013-03-03 04:02:00,40.3,26.6,-100.00,WNW,293,0.0,0.0,58,0.00,,,0.00,meteohub,2013-03-03 10:02:00,
2013-03-03 04:04:00,40.3,26.6,-100.00,WNW,293,0.0,0.0,58,0.00,,,0.00,meteohub,2013-03-03 10:04:00,
2013-03-03 04:08:00,40.3,26.6,-100.00,WNW,293,0.0,0.0,58,0.00,,,0.00,meteohub,2013-03-03 10:08:00,
2013-03-03 04:10:00,40.3,26.6,-100.00,WNW,293,0.0,0.0,58,0.00,,,0.00,meteohub,2013-03-03 10:10:00,
2013-03-03 04:12:00,40.3,26.6,-100.00,WNW,293,0.0,0.0,58,0.00,,,0.00,meteohub,2013-03-03 10:12:00,
2013-03-03 04:14:00,40.3,26.6,-100.00,WNW,293,0.0,0.0,58,0.00,,,0.00,meteohub,2013-03-03 10:14:00,
2013-03-03 04:17:00,40.3,26.6,-100.00,WNW,293,0.0,0.0,58,0.00,,,0.00,meteohub,2013-03-03 10:17:00,
2013-03-03 04:18:00,40.3,26.6,-100.00,WNW,293,0.0,0.0,58,0.00,,,0.00,meteohub,2013-03-03 10:18:00,
2013-03-03 04:20:00,40.3,26.6,-100.00,WNW,293,0.0,0.0,58,0.00,,,0.00,meteohub,2013-03-03 10:20:00,
2013-03-03 04:22:00,40.3,26.6,-100.00,NW,315,0.0,0.0,58,0.00,,,0.00,meteohub,2013-03-03 10:22:00,
2013-03-03 04:26:00,40.1,26.6,-100.00,NW,315,0.0,0.0,58,0.00,,,0.00,meteohub,2013-03-03 10:26:00,
2013-03-03 04:30:00,40.1,27.0,-100.00,NW,315,0.0,0.0,59,0.00,,,0.00,meteohub,2013-03-03 10:30:00,
2013-03-03 04:32:00,39.9,26.8,-100.00,NW,315,0.0,0.0,59,0.00,,,0.00,meteohub,2013-03-03 10:32:00,
2013-03-03 04:34:00,39.9,26.8,-100.00,NW,315,0.0,0.0,59,0.00,,,0.00,meteohub,2013-03-03 10:34:00,
2013-03-03 04:38:00,39.9,26.8,-100.00,NW,315,0.0,0.0,59,0.00,,,0.00,meteohub,2013-03-03 10:38:00,
2013-03-03 04:40:00,39.9,26.8,-100.00,NW,315,0.0,0.0,59,0.00,,,0.00,meteohub,2013-03-03 10:40:00,
2013-03-03 04:42:00,39.9,26.8,-100.00,NW,315,0.0,0.0,59,0.00,,,0.00,meteohub,2013-03-03 10:42:00,
2013-03-03 04:44:00,39.7,26.6,-100.00,NW,315,0.0,0.0,59,0.00,,,0.00,meteohub,2013-03-03 10:44:00,
2013-03-03 04:47:00,39.7,26.6,-100.00,WNW,293,0.0,0.0,59,0.00,,,0.00,meteohub,2013-03-03 10:47:00,
2013-03-03 04:48:00,39.7,26.6,-100.00,NE,45,0.0,0.0,59,0.00,,,0.00,meteohub,2013-03-03 10:48:00,
2013-03-03 04:52:00,39.6,26.4,-100.00,WNW,293,0.0,0.0,59,0.00,,,0.00,meteohub,2013-03-03 10:52:00,
2013-03-03 04:56:00,39.6,26.4,-100.00,WNW,293,0.0,0.0,59,0.00,,,0.00,meteohub,2013-03-03 10:56:00,
2013-03-03 05:00:00,39.4,26.6,-100.00,WNW,293,0.0,0.0,60,0.00,,,0.00,meteohub,2013-03-03 11:00:00,
2013-03-03 05:02:00,39.4,26.6,-100.00,WNW,293,0.0,0.0,60,0.00,,,0.00,meteohub,2013-03-03 11:02:00,
2013-03-03 05:06:00,39.4,26.6,-100.00,WNW,293,0.0,0.0,60,0.00,,,0.00,meteohub,2013-03-03 11:06:00,
2013-03-03 05:08:00,39.4,26.6,-100.00,WNW,293,0.0,0.0,60,0.00,,,0.00,meteohub,2013-03-03 11:08:00,
2013-03-03 05:12:00,39.4,26.6,-100.00,West,270,0.0,0.0,60,0.00,,,0.00,meteohub,2013-03-03 11:12:00,
2013-03-03 05:14:00,39.4,26.6,-100.00,West,270,0.0,0.0,60,0.00,,,0.00,meteohub,2013-03-03 11:14:00,
2013-03-03 05:16:00,39.4,26.6,-100.00,WNW,293,0.0,0.0,60,0.00,,,0.00,meteohub,2013-03-03 11:16:00,
2013-03-03 05:23:00,39.4,26.6,-100.00,WNW,293,0.0,0.0,60,0.00,,,0.00,meteohub,2013-03-03 11:23:00,
2013-03-03 05:25:00,39.4,26.6,-100.00,WNW,293,0.0,0.0,60,0.00,,,0.00,meteohub,2013-03-03 11:25:00,
2013-03-03 05:29:00,39.4,26.6,-100.00,WNW,293,0.0,0.0,60,0.00,,,0.00,meteohub,2013-03-03 11:29:00,
2013-03-03 05:32:00,39.4,26.6,-100.00,WNW,293,0.0,0.0,60,0.00,,,0.00,meteohub,2013-03-03 11:32:00,
2013-03-03 05:33:00,39.4,26.6,-100.00,WNW,293,0.0,0.0,60,0.00,,,0.00,meteohub,2013-03-03 11:33:00,
2013-03-03 05:35:00,39.4,26.6,-100.00,WNW,293,0.0,0.0,60,0.00,,,0.00,meteohub,2013-03-03 11:35:00,
2013-03-03 05:39:00,39.4,26.6,-100.00,WNW,293,0.0,0.0,60,0.00,,,0.00,meteohub,2013-03-03 11:39:00,
2013-03-03 05:41:00,39.6,26.4,-100.00,West,270,0.0,0.0,59,0.00,,,0.00,meteohub,2013-03-03 11:41:00,
2013-03-03 05:45:00,39.6,26.4,-100.00,WNW,293,0.0,0.0,59,0.00,,,0.00,meteohub,2013-03-03 11:45:00,
2013-03-03 05:47:00,39.7,26.6,-100.00,WNW,293,0.0,0.0,59,0.00,,,0.00,meteohub,2013-03-03 11:47:00,
2013-03-03 05:51:00,39.7,26.6,-100.00,WNW,293,0.0,0.0,59,0.00,,,0.00,meteohub,2013-03-03 11:51:00,
2013-03-03 05:55:00,39.9,26.8,-100.00,NNE,23,0.0,0.0,59,0.00,,,0.00,meteohub,2013-03-03 11:55:00,
2013-03-03 05:57:00,39.9,26.8,-100.00,NNE,23,0.0,0.0,59,0.00,,,0.00,meteohub,2013-03-03 11:57:00,
2013-03-03 06:01:00,39.9,26.4,-100.00,West,270,0.0,0.0,58,0.00,,,0.00,meteohub,2013-03-03 12:01:00,
2013-03-03 06:03:00,39.9,26.4,-100.00,West,270,0.0,0.0,58,0.00,,,0.00,meteohub,2013-03-03 12:03:00,
2013-03-03 06:05:00,39.9,26.4,-100.00,West,270,0.0,0.0,58,0.00,,,0.00,meteohub,2013-03-03 12:05:00,
2013-03-03 06:07:00,39.9,26.4,-100.00,NNE,23,0.0,0.0,58,0.00,,,0.00,meteohub,2013-03-03 12:07:00,
2013-03-03 06:09:00,39.9,26.4,-100.00,West,270,0.0,0.0,58,0.00,,,0.00,meteohub,2013-03-03 12:09:00,
2013-03-03 06:11:00,39.9,26.4,-100.00,WNW,293,0.0,0.0,58,0.00,,,0.00,meteohub,2013-03-03 12:11:00,
2013-03-03 06:13:00,39.9,26.4,-100.00,WNW,293,0.0,0.0,58,0.00,,,0.00,meteohub,2013-03-03 12:13:00,
2013-03-03 06:17:00,39.9,26.4,-100.00,WNW,293,0.0,0.0,58,0.00,,,0.00,meteohub,2013-03-03 12:17:00,
2013-03-03 06:23:00,39.9,26.4,-100.00,WNW,293,0.0,0.0,58,0.00,,,0.00,meteohub,2013-03-03 12:23:00,
2013-03-03 06:25:00,39.9,26.4,-100.00,WNW,293,0.0,0.0,58,0.00,,,0.00,meteohub,2013-03-03 12:25:00,
2013-03-03 06:27:00,39.9,26.4,-100.00,WNW,293,0.0,0.0,58,0.00,,,0.00,meteohub,2013-03-03 12:27:00,
2013-03-03 06:32:00,39.9,26.4,-100.00,WNW,293,0.0,0.0,58,0.00,,,0.00,meteohub,2013-03-03 12:32:00,
2013-03-03 06:33:00,39.9,26.4,-100.00,WNW,293,0.0,0.0,58,0.00,,,0.00,meteohub,2013-03-03 12:33:00,
2013-03-03 06:37:00,39.9,26.4,-100.00,WNW,293,0.0,0.0,58,0.00,,,0.00,meteohub,2013-03-03 12:37:00,
2013-03-03 06:39:00,39.9,26.4,-100.00,WNW,293,0.0,0.0,58,0.00,,,0.00,meteohub,2013-03-03 12:39:00,
2013-03-03 06:43:00,39.9,25.9,-100.00,NW,315,0.0,0.0,57,0.00,,,0.00,meteohub,2013-03-03 12:43:00,
2013-03-03 06:45:00,39.9,25.9,-100.00,NW,315,0.0,0.0,57,0.00,,,0.00,meteohub,2013-03-03 12:45:00,
2013-03-03 06:51:00,39.9,25.9,-100.00,NE,45,0.0,0.0,57,0.00,,,0.00,meteohub,2013-03-03 12:51:00,
2013-03-03 06:55:00,39.9,25.9,-100.00,NE,45,0.0,0.0,57,0.00,,,0.00,meteohub,2013-03-03 12:55:00,
2013-03-03 06:59:00,39.9,25.9,-100.00,NE,45,0.0,0.0,57,0.00,,,0.00,meteohub,2013-03-03 12:59:00,
2013-03-03 07:05:00,39.9,25.9,-100.00,NE,45,0.0,0.0,57,0.00,,,0.00,meteohub,2013-03-03 13:05:00,
2013-03-03 07:11:00,39.9,25.9,-100.00,NE,45,0.0,0.0,57,0.00,,,0.00,meteohub,2013-03-03 13:11:00,
2013-03-03 07:13:00,39.9,25.9,-100.00,NE,45,0.0,0.0,57,0.00,,,0.00,meteohub,2013-03-03 13:13:00,
2013-03-03 07:17:00,39.9,26.4,-100.00,NE,45,0.0,0.0,58,0.00,,,0.00,meteohub,2013-03-03 13:17:00,
2013-03-03 07:19:00,39.9,26.4,-100.00,NE,45,0.0,0.0,58,0.00,,,0.00,meteohub,2013-03-03 13:19:00,
2013-03-03 07:25:00,41.0,27.3,-100.00,NE,45,0.0,0.0,58,0.00,,,0.00,meteohub,2013-03-03 13:25:00,
2013-03-03 07:27:00,41.7,28.0,-100.00,NE,45,0.0,0.0,58,0.00,,,0.00,meteohub,2013-03-03 13:27:00,
2013-03-03 07:31:00,43.5,29.3,-100.00,NE,45,0.0,0.0,57,0.00,,,0.00,meteohub,2013-03-03 13:31:00,
2013-03-03 07:33:00,43.5,28.9,-100.00,NE,45,0.0,0.0,56,0.00,,,0.00,meteohub,2013-03-03 13:33:00,
2013-03-03 07:37:00,43.7,29.1,-100.00,NE,45,0.0,0.0,56,0.00,,,0.00,meteohub,2013-03-03 13:37:00,
2013-03-03 07:39:00,43.7,28.6,-100.00,NE,45,0.0,0.0,55,0.00,,,0.00,meteohub,2013-03-03 13:39:00,
2013-03-03 07:41:00,43.7,28.6,-100.00,NE,45,0.0,0.0,55,0.00,,,0.00,meteohub,2013-03-03 13:41:00,
2013-03-03 07:45:00,43.9,28.8,-100.00,WSW,248,0.0,0.0,55,0.00,,,0.00,meteohub,2013-03-03 13:45:00,
2013-03-03 07:47:00,43.9,28.8,-100.00,North,0,0.0,0.0,55,0.00,,,0.00,meteohub,2013-03-03 13:47:00,
2013-03-03 07:53:00,44.4,29.3,-100.00,NNE,23,0.0,0.0,55,0.00,,,0.00,meteohub,2013-03-03 13:53:00,
2013-03-03 07:56:00,44.6,29.5,-100.00,NNE,23,0.0,0.0,55,0.00,,,0.00,meteohub,2013-03-03 13:56:00,
2013-03-03 08:00:00,45.3,29.7,-100.00,NW,315,0.0,0.0,54,0.00,,,0.00,meteohub,2013-03-03 14:00:00,
2013-03-03 08:02:00,45.7,29.5,-100.00,SW,225,0.0,0.0,53,0.00,,,0.00,meteohub,2013-03-03 14:02:00,
2013-03-03 08:06:00,46.2,29.5,-100.00,SSW,203,0.0,0.0,52,0.00,,,0.00,meteohub,2013-03-03 14:06:00,
2013-03-03 08:10:00,46.9,30.2,-100.00,WSW,248,0.0,0.0,52,0.00,,,0.00,meteohub,2013-03-03 14:10:00,
2013-03-03 08:12:00,47.8,30.0,-100.00,West,270,0.0,0.0,50,0.00,,,0.00,meteohub,2013-03-03 14:12:00,
2013-03-03 08:14:00,47.8,30.0,-100.00,West,270,0.0,0.0,50,0.00,,,0.00,meteohub,2013-03-03 14:14:00,
2013-03-03 08:16:00,48.2,30.4,-100.00,West,270,0.0,0.0,50,0.00,,,0.00,meteohub,2013-03-03 14:16:00,
2013-03-03 08:18:00,48.6,30.2,-100.00,WNW,293,0.0,0.0,49,0.00,,,0.00,meteohub,2013-03-03 14:18:00,
2013-03-03 08:20:00,48.9,30.6,-100.00,West,270,0.0,0.0,49,0.00,,,0.00,meteohub,2013-03-03 14:20:00,
2013-03-03 08:24:00,49.8,30.9,-100.00,ENE,68,0.0,0.0,48,0.00,,,0.00,meteohub,2013-03-03 14:24:00,
2013-03-03 08:30:00,50.7,31.3,-100.00,South,180,1.0,1.0,47,0.00,,,0.00,meteohub,2013-03-03 14:30:00,
2013-03-03 08:32:00,51.1,31.1,-100.00,South,180,0.0,1.0,46,0.00,,,0.00,meteohub,2013-03-03 14:32:00,
2013-03-03 08:34:00,51.4,31.3,-100.00,SE,135,3.0,3.0,46,0.00,,,0.00,meteohub,2013-03-03 14:34:00,
2013-03-03 08:38:00,52.2,31.5,-100.00,West,270,0.0,3.0,45,0.00,,,0.00,meteohub,2013-03-03 14:38:00,
2013-03-03 08:40:00,52.3,31.6,-100.00,West,270,0.0,3.0,45,0.00,,,0.00,meteohub,2013-03-03 14:40:00,
2013-03-03 08:42:00,52.7,31.5,-100.00,SW,225,0.0,3.0,44,0.00,,,0.00,meteohub,2013-03-03 14:42:00,
2013-03-03 08:46:00,53.2,31.8,-100.00,South,180,2.0,3.0,44,0.00,,,0.00,meteohub,2013-03-03 14:46:00,
2013-03-03 08:47:00,53.4,32.0,-100.00,SW,225,2.0,3.0,44,0.00,,,0.00,meteohub,2013-03-03 14:47:00,
2013-03-03 08:48:00,53.8,31.8,-100.00,SSW,203,3.0,3.0,43,0.00,,,0.00,meteohub,2013-03-03 14:48:00,
2013-03-03 08:52:00,54.1,32.2,-100.00,West,270,2.0,3.0,43,0.00,,,0.00,meteohub,2013-03-03 14:52:00,
2013-03-03 08:54:00,54.3,32.4,-100.00,West,270,1.0,3.0,43,0.00,,,0.00,meteohub,2013-03-03 14:54:00,
2013-03-03 08:56:00,54.7,32.0,-100.00,West,270,2.0,3.0,42,0.00,,,0.00,meteohub,2013-03-03 14:56:00,
2013-03-03 09:00:00,55.6,32.9,-100.00,South,180,3.0,3.0,42,0.00,,,0.00,meteohub,2013-03-03 15:00:00,
2013-03-03 09:02:00,55.9,32.5,-100.00,South,180,2.0,3.0,41,0.00,,,0.00,meteohub,2013-03-03 15:02:00,
2013-03-03 09:06:00,56.5,32.4,-100.00,SSW,203,5.0,5.0,40,0.00,,,0.00,meteohub,2013-03-03 15:06:00,
2013-03-03 09:10:00,57.0,32.4,-100.00,NW,315,1.0,5.0,39,0.00,,,0.00,meteohub,2013-03-03 15:10:00,
2013-03-03 09:12:00,57.6,32.7,-100.00,ESE,113,2.0,5.0,39,0.00,,,0.00,meteohub,2013-03-03 15:12:00,
2013-03-03 09:18:00,58.5,32.9,-100.00,South,180,4.0,5.0,38,0.00,,,0.00,meteohub,2013-03-03 15:18:00,
2013-03-03 09:24:00,59.2,33.6,-100.00,West,270,1.0,5.0,38,0.00,,,0.00,meteohub,2013-03-03 15:24:00,
2013-03-03 09:26:00,59.5,33.3,-100.00,SW,225,2.0,4.0,37,0.00,,,0.00,meteohub,2013-03-03 15:26:00,
2013-03-03 09:28:00,59.7,33.4,-100.00,SSW,203,4.0,4.0,37,0.00,,,0.00,meteohub,2013-03-03 15:28:00,
2013-03-03 09:30:00,60.3,33.8,-100.00,West,270,3.0,4.0,37,0.00,,,0.00,meteohub,2013-03-03 15:30:00,
2013-03-03 09:34:00,61.0,33.8,-100.00,West,270,2.0,4.0,36,0.00,,,0.00,meteohub,2013-03-03 15:34:00,
2013-03-03 09:36:00,61.3,34.2,-100.00,South,180,1.0,4.0,36,0.00,,,0.00,meteohub,2013-03-03 15:36:00,
2013-03-03 09:40:00,61.5,34.3,-100.00,SW,225,2.0,4.0,36,0.00,,,0.00,meteohub,2013-03-03 15:40:00,
2013-03-03 09:46:00,63.0,34.2,-100.00,South,180,3.0,3.0,34,0.00,,,0.00,meteohub,2013-03-03 15:46:00,
2013-03-03 09:47:00,63.0,34.2,-100.00,South,180,3.0,3.0,34,0.00,,,0.00,meteohub,2013-03-03 15:47:00,
2013-03-03 09:48:00,63.1,34.3,-100.00,SSE,158,3.0,3.0,34,0.00,,,0.00,meteohub,2013-03-03 15:48:00,
2013-03-03 09:50:00,63.3,34.5,-100.00,SSE,158,3.0,5.0,34,0.00,,,0.00,meteohub,2013-03-03 15:50:00,
2013-03-03 09:54:00,64.2,35.2,-100.00,West,270,1.0,5.0,34,0.00,,,0.00,meteohub,2013-03-03 15:54:00,
2013-03-03 09:56:00,64.2,35.2,-100.00,West,270,1.0,5.0,34,0.00,,,0.00,meteohub,2013-03-03 15:56:00,
2013-03-03 10:00:00,64.9,35.1,-100.00,SSE,158,3.0,5.0,33,0.00,,,0.00,meteohub,2013-03-03 16:00:00,
2013-03-03 10:02:00,65.1,34.5,-100.00,West,270,2.0,5.0,32,0.00,,,0.00,meteohub,2013-03-03 16:02:00,
2013-03-03 10:04:00,65.1,34.5,-100.00,WSW,248,2.0,5.0,32,0.00,,,0.00,meteohub,2013-03-03 16:04:00,
2013-03-03 10:08:00,65.3,34.7,-100.00,SW,225,6.0,6.0,32,0.00,,,0.00,meteohub,2013-03-03 16:08:00,
2013-03-03 10:10:00,65.3,34.7,-100.00,SSW,203,4.0,6.0,32,0.00,,,0.00,meteohub,2013-03-03 16:10:00,
2013-03-03 10:14:00,66.0,35.2,-100.00,SSE,158,2.0,6.0,32,0.00,,,0.00,meteohub,2013-03-03 16:14:00,
2013-03-03 10:20:00,66.6,35.1,-100.00,WSW,248,1.0,6.0,31,0.00,,,0.00,meteohub,2013-03-03 16:20:00,
2013-03-03 10:22:00,66.6,34.2,-100.00,SSW,203,4.0,6.0,30,0.00,,,0.00,meteohub,2013-03-03 16:22:00,
2013-03-03 10:26:00,66.7,34.3,-100.00,SSW,203,2.0,5.0,30,0.00,,,0.00,meteohub,2013-03-03 16:26:00,
2013-03-03 10:31:00,66.6,34.2,-100.00,SW,225,1.0,6.0,30,0.00,,,0.00,meteohub,2013-03-03 16:31:00,
2013-03-03 10:32:00,66.7,35.1,-100.00,WSW,248,3.0,6.0,31,0.00,,,0.00,meteohub,2013-03-03 16:32:00,
2013-03-03 10:33:00,66.7,35.1,-100.00,WSW,248,3.0,6.0,31,0.00,,,0.00,meteohub,2013-03-03 16:33:00,
2013-03-03 10:35:00,67.1,34.7,-100.00,SSE,158,2.0,6.0,30,0.00,,,0.00,meteohub,2013-03-03 16:35:00,
2013-03-03 10:39:00,67.8,35.2,-100.00,West,270,2.0,6.0,30,0.00,,,0.00,meteohub,2013-03-03 16:39:00,
2013-03-03 10:41:00,68.2,35.6,-100.00,South,180,3.0,9.0,30,0.00,,,0.00,meteohub,2013-03-03 16:41:00,
2013-03-03 10:45:00,68.5,35.1,-100.00,South,180,3.0,9.0,29,0.00,,,0.00,meteohub,2013-03-03 16:45:00,
2013-03-03 10:47:00,68.5,35.1,-100.00,SSE,158,2.0,9.0,29,0.00,,,0.00,meteohub,2013-03-03 16:47:00,
2013-03-03 10:51:00,68.7,35.2,-100.00,South,180,3.0,9.0,29,0.00,,,0.00,meteohub,2013-03-03 16:51:00,
2013-03-03 10:53:00,69.1,35.4,-100.00,SSW,203,5.0,9.0,29,0.00,,,0.00,meteohub,2013-03-03 16:53:00,
2013-03-03 10:57:00,69.6,34.2,-100.00,SSW,203,8.0,8.0,27,0.00,,,0.00,meteohub,2013-03-03 16:57:00,
2013-03-03 10:59:00,70.0,34.5,-100.00,WSW,248,2.0,5.0,27,0.00,,,0.00,meteohub,2013-03-03 16:59:00,
2013-03-03 11:03:00,70.3,33.8,-100.00,SSE,158,6.0,8.0,26,0.00,,,0.00,meteohub,2013-03-03 17:03:00,
2013-03-03 11:05:00,70.3,33.8,-100.00,SW,225,1.0,8.0,26,0.00,,,0.00,meteohub,2013-03-03 17:05:00,
2013-03-03 11:11:00,70.7,34.2,-100.00,WSW,248,4.0,8.0,26,0.00,,,0.00,meteohub,2013-03-03 17:11:00,
2013-03-03 11:13:00,70.9,34.3,-100.00,South,180,3.0,8.0,26,0.00,,,0.00,meteohub,2013-03-03 17:13:00,
2013-03-03 11:15:00,71.2,34.5,-100.00,NW,315,0.0,6.0,26,0.00,,,0.00,meteohub,2013-03-03 17:15:00,
2013-03-03 11:17:00,71.4,34.7,-100.00,West,270,0.0,6.0,26,0.00,,,0.00,meteohub,2013-03-03 17:17:00,
2013-03-03 11:23:00,72.3,34.5,-100.00,South,180,4.0,6.0,25,0.00,,,0.00,meteohub,2013-03-03 17:23:00,
2013-03-03 11:27:00,72.3,33.4,-100.00,SSW,203,7.0,7.0,24,0.00,,,0.00,meteohub,2013-03-03 17:27:00,
2013-03-03 11:29:00,72.3,33.4,-100.00,SSW,203,7.0,7.0,24,0.00,,,0.00,meteohub,2013-03-03 17:29:00,
2013-03-03 11:33:00,72.1,33.4,-100.00,South,180,2.0,7.0,24,0.00,,,0.00,meteohub,2013-03-03 17:33:00,
2013-03-03 11:39:00,72.1,34.3,-100.00,West,270,3.0,7.0,25,0.00,,,0.00,meteohub,2013-03-03 17:39:00,
2013-03-03 11:43:00,72.7,33.8,-100.00,South,180,2.0,7.0,24,0.00,,,0.00,meteohub,2013-03-03 17:43:00,
2013-03-03 11:47:00,73.2,34.3,-100.00,WNW,293,3.0,7.0,24,0.00,,,0.00,meteohub,2013-03-03 17:47:00,
2013-03-03 11:53:00,73.4,34.3,-100.00,SW,225,2.0,4.0,24,0.00,,,0.00,meteohub,2013-03-03 17:53:00,
2013-03-03 11:55:00,73.6,33.4,-100.00,WSW,248,4.0,5.0,23,0.00,,,0.00,meteohub,2013-03-03 17:55:00,
2013-03-03 11:59:00,73.6,33.4,-100.00,WSW,248,3.0,5.0,23,0.00,,,0.00,meteohub,2013-03-03 17:59:00,
2013-03-03 12:01:00,73.6,33.4,-100.00,SSW,203,10.0,10.0,23,0.00,,,0.00,meteohub,2013-03-03 18:01:00,
2013-03-03 12:05:00,73.9,33.8,-100.00,NW,315,3.0,10.0,23,0.00,,,0.00,meteohub,2013-03-03 18:05:00,
2013-03-03 12:07:00,73.9,33.8,-100.00,NW,315,3.0,10.0,23,0.00,,,0.00,meteohub,2013-03-03 18:07:00,
2013-03-03 12:11:00,74.5,34.3,-100.00,South,180,5.0,10.0,23,0.00,,,0.00,meteohub,2013-03-03 18:11:00,
2013-03-03 12:13:00,74.8,33.4,-100.00,North,0,4.0,10.0,22,0.00,,,0.00,meteohub,2013-03-03 18:13:00,
2013-03-03 12:15:00,74.8,33.4,-100.00,NW,315,2.0,10.0,22,0.00,,,0.00,meteohub,2013-03-03 18:15:00,
2013-03-03 12:17:00,75.0,34.7,-100.00,South,180,7.0,10.0,23,0.00,,,0.00,meteohub,2013-03-03 18:17:00,
2013-03-03 12:23:00,75.6,34.0,-100.00,South,180,7.0,7.0,22,0.00,,,0.00,meteohub,2013-03-03 18:23:00,
2013-03-03 12:25:00,75.6,32.9,-100.00,SSW,203,4.0,7.0,21,0.00,,,0.00,meteohub,2013-03-03 18:25:00,
2013-03-03 12:29:00,74.8,32.4,-100.00,NW,315,2.0,7.0,21,0.00,,,0.00,meteohub,2013-03-03 18:29:00,
2013-03-03 12:32:00,74.5,33.1,-100.00,South,180,7.0,7.0,22,0.00,,,0.00,meteohub,2013-03-03 18:32:00,
2013-03-03 12:35:00,74.1,32.9,-100.00,WSW,248,3.0,7.0,22,0.00,,,0.00,meteohub,2013-03-03 18:35:00,
2013-03-03 12:37:00,74.1,32.9,-100.00,WSW,248,3.0,7.0,22,0.00,,,0.00,meteohub,2013-03-03 18:37:00,
2013-03-03 12:39:00,74.1,31.6,-100.00,WSW,248,5.0,7.0,21,0.00,,,0.00,meteohub,2013-03-03 18:39:00,
2013-03-03 12:43:00,73.9,32.7,-100.00,SSW,203,4.0,7.0,22,0.00,,,0.00,meteohub,2013-03-03 18:43:00,
2013-03-03 12:47:00,74.5,33.1,-100.00,WNW,293,2.0,7.0,22,0.00,,,0.00,meteohub,2013-03-03 18:47:00,
2013-03-03 12:49:00,74.8,32.4,-100.00,South,180,5.0,7.0,21,0.00,,,0.00,meteohub,2013-03-03 18:49:00,
2013-03-03 12:51:00,74.8,33.4,-100.00,NW,315,5.0,5.0,22,0.00,,,0.00,meteohub,2013-03-03 18:51:00,
2013-03-03 12:55:00,75.0,32.4,-100.00,South,180,6.0,6.0,21,0.00,,,0.00,meteohub,2013-03-03 18:55:00,
2013-03-03 13:02:00,75.6,32.9,-100.00,SSW,203,5.0,6.0,21,0.00,,,0.00,meteohub,2013-03-03 19:02:00,
2013-03-03 13:04:00,75.7,33.1,-100.00,SSE,158,8.0,8.0,21,0.00,,,0.00,meteohub,2013-03-03 19:04:00,
2013-03-03 13:08:00,75.9,33.3,-100.00,SSW,203,5.0,8.0,21,0.00,,,0.00,meteohub,2013-03-03 19:08:00,
2013-03-03 13:12:00,76.3,33.4,-100.00,SSW,203,4.0,8.0,21,0.00,,,0.00,meteohub,2013-03-03 19:12:00,
2013-03-03 13:14:00,76.6,33.8,-100.00,WSW,248,2.0,8.0,21,0.00,,,0.00,meteohub,2013-03-03 19:14:00,
2013-03-03 13:16:00,76.8,34.0,-100.00,SSW,203,6.0,8.0,21,0.00,,,0.00,meteohub,2013-03-03 19:16:00,
2013-03-03 13:18:00,77.0,34.2,-100.00,South,180,0.0,8.0,21,0.00,,,0.00,meteohub,2013-03-03 19:18:00,
2013-03-03 13:20:00,77.0,34.2,-100.00,South,180,0.0,6.0,21,0.00,,,0.00,meteohub,2013-03-03 19:20:00,
2013-03-03 13:24:00,77.4,34.3,-100.00,NW,315,4.0,6.0,21,0.00,,,0.00,meteohub,2013-03-03 19:24:00,
2013-03-03 13:26:00,77.5,34.5,-100.00,SSE,158,4.0,6.0,21,0.00,,,0.00,meteohub,2013-03-03 19:26:00,
2013-03-03 13:30:00,77.2,33.1,-100.00,South,180,4.0,7.0,20,0.00,,,0.00,meteohub,2013-03-03 19:30:00,
2013-03-03 13:32:00,76.8,32.7,-100.00,SSE,158,5.0,7.0,20,0.00,,,0.00,meteohub,2013-03-03 19:32:00,
2013-03-03 13:34:00,76.6,32.5,-100.00,West,270,3.0,7.0,20,0.00,,,0.00,meteohub,2013-03-03 19:34:00,
2013-03-03 13:38:00,76.5,32.4,-100.00,South,180,4.0,7.0,20,0.00,,,0.00,meteohub,2013-03-03 19:38:00,
2013-03-03 13:42:00,76.3,33.4,-100.00,West,270,2.0,7.0,21,0.00,,,0.00,meteohub,2013-03-03 19:42:00,
2013-03-03 13:46:00,76.6,33.8,-100.00,South,180,10.0,10.0,21,0.00,,,0.00,meteohub,2013-03-03 19:46:00,
2013-03-03 13:47:00,76.6,33.8,-100.00,South,180,10.0,10.0,21,0.00,,,0.00,meteohub,2013-03-03 19:47:00,
2013-03-03 13:50:00,76.8,32.7,-100.00,SSW,203,10.0,10.0,20,0.00,,,0.00,meteohub,2013-03-03 19:50:00,
2013-03-03 13:52:00,76.8,32.7,-100.00,SSW,203,10.0,10.0,20,0.00,,,0.00,meteohub,2013-03-03 19:52:00,
2013-03-03 13:56:00,76.6,32.5,-100.00,SSE,158,5.0,10.0,20,0.00,,,0.00,meteohub,2013-03-03 19:56:00,
2013-03-03 13:58:00,76.6,32.5,-100.00,West,270,3.0,10.0,20,0.00,,,0.00,meteohub,2013-03-03 19:58:00,
2013-03-03 14:00:00,76.5,33.6,-100.00,SW,225,2.0,10.0,21,0.00,,,0.00,meteohub,2013-03-03 20:00:00,
2013-03-03 14:02:00,76.6,32.5,-100.00,SSE,158,7.0,10.0,20,0.00,,,0.00,meteohub,2013-03-03 20:02:00,
2013-03-03 14:04:00,76.6,32.5,-100.00,SE,135,9.0,10.0,20,0.00,,,0.00,meteohub,2013-03-03 20:04:00,
2013-03-03 14:06:00,76.5,32.4,-100.00,SSW,203,10.0,10.0,20,0.00,,,0.00,meteohub,2013-03-03 20:06:00,
2013-03-03 14:08:00,76.3,32.2,-100.00,South,180,10.0,10.0,20,0.00,,,0.00,meteohub,2013-03-03 20:08:00,
2013-03-03 14:14:00,76.8,32.7,-100.00,South,180,7.0,10.0,20,0.00,,,0.00,meteohub,2013-03-03 20:14:00,
2013-03-03 14:18:00,77.0,32.9,-100.00,SSE,158,4.0,10.0,20,0.00,,,0.00,meteohub,2013-03-03 20:18:00,
2013-03-03 14:22:00,77.4,33.1,-100.00,SE,135,5.0,10.0,20,0.00,,,0.00,meteohub,2013-03-03 20:22:00,
2013-03-03 14:24:00,77.4,33.1,-100.00,SSE,158,5.0,10.0,20,0.00,,,0.00,meteohub,2013-03-03 20:24:00,
2013-03-03 14:26:00,77.5,33.3,-100.00,WSW,248,2.0,7.0,20,0.00,,,0.00,meteohub,2013-03-03 20:26:00,
2013-03-03 14:30:00,77.5,33.3,-100.00,SSW,203,3.0,7.0,20,0.00,,,0.00,meteohub,2013-03-03 20:30:00,
2013-03-03 14:32:00,77.5,33.3,-100.00,SW,225,2.0,7.0,20,0.00,,,0.00,meteohub,2013-03-03 20:32:00,
2013-03-03 14:34:00,77.4,33.1,-100.00,WSW,248,2.0,7.0,20,0.00,,,0.00,meteohub,2013-03-03 20:34:00,
2013-03-03 14:38:00,77.5,33.3,-100.00,SSW,203,7.0,7.0,20,0.00,,,0.00,meteohub,2013-03-03 20:38:00,
2013-03-03 14:40:00,77.5,32.0,-100.00,SSE,158,4.0,7.0,19,0.00,,,0.00,meteohub,2013-03-03 20:40:00,
2013-03-03 14:42:00,77.2,30.4,-100.00,West,270,4.0,7.0,18,0.00,,,0.00,meteohub,2013-03-03 20:42:00,
2013-03-03 14:47:00,77.0,31.6,-100.00,SW,225,6.0,7.0,19,0.00,,,0.00,meteohub,2013-03-03 20:47:00,
2013-03-03 14:48:00,77.2,33.1,-100.00,South,180,5.0,7.0,20,0.00,,,0.00,meteohub,2013-03-03 20:48:00,
2013-03-03 14:54:00,77.4,33.1,-100.00,SSW,203,4.0,7.0,20,0.00,,,0.00,meteohub,2013-03-03 20:54:00,
2013-03-03 14:56:00,77.4,33.1,-100.00,SSW,203,4.0,6.0,20,0.00,,,0.00,meteohub,2013-03-03 20:56:00,
2013-03-03 15:00:00,77.7,32.2,-100.00,SW,225,4.0,6.0,19,0.00,,,0.00,meteohub,2013-03-03 21:00:00,
2013-03-03 15:02:00,77.7,32.2,-100.00,ESE,113,0.0,6.0,19,0.00,,,0.00,meteohub,2013-03-03 21:02:00,
2013-03-03 15:06:00,77.5,33.3,-100.00,SW,225,1.0,4.0,20,0.00,,,0.00,meteohub,2013-03-03 21:06:00,
2013-03-03 15:08:00,77.5,33.3,-100.00,East,90,6.0,6.0,20,0.00,,,0.00,meteohub,2013-03-03 21:08:00,
2013-03-03 15:12:00,77.4,31.8,-100.00,SW,225,5.0,6.0,19,0.00,,,0.00,meteohub,2013-03-03 21:12:00,
2013-03-03 15:14:00,76.8,31.5,-100.00,SE,135,4.0,6.0,19,0.00,,,0.00,meteohub,2013-03-03 21:14:00,
2013-03-03 15:18:00,76.6,32.5,-100.00,SW,225,4.0,8.0,20,0.00,,,0.00,meteohub,2013-03-03 21:18:00,
2013-03-03 15:20:00,76.8,32.7,-100.00,SSW,203,8.0,8.0,20,0.00,,,0.00,meteohub,2013-03-03 21:20:00,
2013-03-03 15:24:00,76.6,32.5,-100.00,SSE,158,7.0,8.0,20,0.00,,,0.00,meteohub,2013-03-03 21:24:00,
2013-03-03 15:26:00,76.5,32.4,-100.00,SE,135,3.0,8.0,20,0.00,,,0.00,meteohub,2013-03-03 21:26:00,
2013-03-03 15:30:00,76.3,32.2,-100.00,South,180,6.0,8.0,20,0.00,,,0.00,meteohub,2013-03-03 21:30:00,
2013-03-03 15:32:00,76.3,32.2,-100.00,South,180,6.0,8.0,20,0.00,,,0.00,meteohub,2013-03-03 21:32:00,
2013-03-03 15:36:00,76.5,32.4,-100.00,South,180,9.0,9.0,20,0.00,,,0.00,meteohub,2013-03-03 21:36:00,
2013-03-03 15:38:00,76.3,32.2,-100.00,ESE,113,4.0,8.0,20,0.00,,,0.00,meteohub,2013-03-03 21:38:00,
2013-03-03 15:43:00,76.3,33.4,-100.00,ENE,68,4.0,9.0,21,0.00,,,0.00,meteohub,2013-03-03 21:43:00,
2013-03-03 15:45:00,76.5,33.6,-100.00,NW,315,6.0,9.0,21,0.00,,,0.00,meteohub,2013-03-03 21:45:00,
2013-03-03 15:47:00,76.6,32.5,-100.00,SSE,158,7.0,9.0,20,0.00,,,0.00,meteohub,2013-03-03 21:47:00,
2013-03-03 15:49:00,76.5,32.4,-100.00,WSW,248,6.0,9.0,20,0.00,,,0.00,meteohub,2013-03-03 21:49:00,
2013-03-03 15:53:00,76.6,32.5,-100.00,South,180,4.0,9.0,20,0.00,,,0.00,meteohub,2013-03-03 21:53:00,
2013-03-03 15:55:00,76.6,33.8,-100.00,West,270,2.0,9.0,21,0.00,,,0.00,meteohub,2013-03-03 21:55:00,
2013-03-03 15:57:00,76.8,32.7,-100.00,South,180,7.0,7.0,20,0.00,,,0.00,meteohub,2013-03-03 21:57:00,
2013-03-03 16:01:00,76.8,32.7,-100.00,West,270,3.0,7.0,20,0.00,,,0.00,meteohub,2013-03-03 22:01:00,
2013-03-03 16:03:00,76.8,32.7,-100.00,SSE,158,5.0,7.0,20,0.00,,,0.00,meteohub,2013-03-03 22:03:00,
2013-03-03 16:05:00,76.8,32.7,-100.00,SW,225,11.0,11.0,20,0.00,,,0.00,meteohub,2013-03-03 22:05:00,
2013-03-03 16:09:00,76.8,32.7,-100.00,SE,135,3.0,7.0,20,0.00,,,0.00,meteohub,2013-03-03 22:09:00,
2013-03-03 16:11:00,76.8,32.7,-100.00,SE,135,3.0,11.0,20,0.00,,,0.00,meteohub,2013-03-03 22:11:00,
2013-03-03 16:15:00,76.5,32.4,-100.00,SW,225,7.0,11.0,20,0.00,,,0.00,meteohub,2013-03-03 22:15:00,
2013-03-03 16:17:00,76.6,32.5,-100.00,SSE,158,5.0,11.0,20,0.00,,,0.00,meteohub,2013-03-03 22:17:00,
2013-03-03 16:21:00,76.3,33.4,-100.00,WSW,248,3.0,11.0,21,0.00,,,0.00,meteohub,2013-03-03 22:21:00,
2013-03-03 16:23:00,76.3,32.2,-100.00,SSE,158,8.0,11.0,20,0.00,,,0.00,meteohub,2013-03-03 22:23:00,
2013-03-03 16:25:00,75.9,32.0,-100.00,South,180,5.0,8.0,20,0.00,,,0.00,meteohub,2013-03-03 22:25:00,
2013-03-03 16:29:00,75.7,31.8,-100.00,SSW,203,4.0,8.0,20,0.00,,,0.00,meteohub,2013-03-03 22:29:00,
2013-03-03 16:31:00,75.6,32.9,-100.00,SSW,203,6.0,8.0,21,0.00,,,0.00,meteohub,2013-03-03 22:31:00,
2013-03-03 16:32:00,75.6,32.9,-100.00,SSW,203,6.0,8.0,21,0.00,,,0.00,meteohub,2013-03-03 22:32:00,
2013-03-03 16:37:00,75.4,32.7,-100.00,WSW,248,3.0,8.0,21,0.00,,,0.00,meteohub,2013-03-03 22:37:00,
2013-03-03 16:39:00,75.4,32.7,-100.00,WSW,248,3.0,8.0,21,0.00,,,0.00,meteohub,2013-03-03 22:39:00,
2013-03-03 16:43:00,75.4,32.7,-100.00,ESE,113,6.0,6.0,21,0.00,,,0.00,meteohub,2013-03-03 22:43:00,
2013-03-03 16:45:00,75.0,32.4,-100.00,WSW,248,4.0,6.0,21,0.00,,,0.00,meteohub,2013-03-03 22:45:00,
2013-03-03 16:47:00,75.0,32.4,-100.00,WSW,248,4.0,6.0,21,0.00,,,0.00,meteohub,2013-03-03 22:47:00,
2013-03-03 16:53:00,74.8,32.4,-100.00,WSW,248,4.0,6.0,21,0.00,,,0.00,meteohub,2013-03-03 22:53:00,
2013-03-03 16:57:00,74.8,32.4,-100.00,WSW,248,4.0,6.0,21,0.00,,,0.00,meteohub,2013-03-03 22:57:00,
2013-03-03 16:59:00,74.3,31.8,-100.00,ESE,113,2.0,6.0,21,0.00,,,0.00,meteohub,2013-03-03 22:59:00,
2013-03-03 17:03:00,74.1,31.6,-100.00,SE,135,12.0,12.0,21,0.00,,,0.00,meteohub,2013-03-03 23:03:00,
2013-03-03 17:05:00,74.1,31.6,-100.00,WSW,248,1.0,12.0,21,0.00,,,0.00,meteohub,2013-03-03 23:05:00,
2013-03-03 17:07:00,74.1,31.6,-100.00,SE,135,7.0,12.0,21,0.00,,,0.00,meteohub,2013-03-03 23:07:00,
2013-03-03 17:09:00,73.9,31.5,-100.00,SE,135,4.0,12.0,21,0.00,,,0.00,meteohub,2013-03-03 23:09:00,
2013-03-03 17:11:00,73.9,31.5,-100.00,South,180,4.0,12.0,21,0.00,,,0.00,meteohub,2013-03-03 23:11:00,
2013-03-03 17:15:00,73.6,31.3,-100.00,West,270,2.0,12.0,21,0.00,,,0.00,meteohub,2013-03-03 23:15:00,
2013-03-03 17:17:00,73.6,31.3,-100.00,West,270,2.0,12.0,21,0.00,,,0.00,meteohub,2013-03-03 23:17:00,
2013-03-03 17:19:00,73.6,31.3,-100.00,South,180,9.0,12.0,21,0.00,,,0.00,meteohub,2013-03-03 23:19:00,
2013-03-03 17:21:00,73.6,31.3,-100.00,South,180,4.0,7.0,21,0.00,,,0.00,meteohub,2013-03-03 23:21:00,
2013-03-03 17:23:00,73.2,30.9,-100.00,SE,135,6.0,7.0,21,0.00,,,0.00,meteohub,2013-03-03 23:23:00,
2013-03-03 17:29:00,73.0,30.7,-100.00,WSW,248,1.0,9.0,21,0.00,,,0.00,meteohub,2013-03-03 23:29:00,
2013-03-03 17:31:00,73.0,30.7,-100.00,South,180,7.0,9.0,21,0.00,,,0.00,meteohub,2013-03-03 23:31:00,
2013-03-03 17:33:00,72.9,31.8,-100.00,ESE,113,2.0,9.0,22,0.00,,,0.00,meteohub,2013-03-03 23:33:00,
2013-03-03 17:35:00,72.7,31.6,-100.00,SSE,158,6.0,7.0,22,0.00,,,0.00,meteohub,2013-03-03 23:35:00,
2013-03-03 17:41:00,72.5,31.5,-100.00,SSW,203,7.0,7.0,22,0.00,,,0.00,meteohub,2013-03-03 23:41:00,
2013-03-03 17:45:00,72.3,31.3,-100.00,South,180,6.0,7.0,22,0.00,,,0.00,meteohub,2013-03-03 23:45:00,
2013-03-03 17:47:00,72.3,31.3,-100.00,South,180,6.0,7.0,22,0.00,,,0.00,meteohub,2013-03-03 23:47:00,
2013-03-03 17:51:00,72.3,31.3,-100.00,South,180,5.0,12.0,22,0.00,,,0.00,meteohub,2013-03-03 23:51:00,
2013-03-03 17:53:00,72.1,31.1,-100.00,South,180,5.0,12.0,22,0.00,,,0.00,meteohub,2013-03-03 23:53:00,
2013-03-03 17:57:00,72.1,31.1,-100.00,South,180,1.0,12.0,22,0.00,,,0.00,meteohub,2013-03-03 23:57:00,
2013-03-03 17:59:00,72.0,31.1,-100.00,WSW,248,4.0,12.0,22,0.00,,,0.00,meteohub,2013-03-03 23:59:00,
2013-03-03 18:03:00,71.8,30.9,-100.00,East,90,4.0,12.0,22,0.00,,,0.00,meteohub,2013-03-04 00:03:00,
2013-03-03 18:05:00,71.8,30.9,-100.00,SSW,203,2.0,5.0,22,0.00,,,0.00,meteohub,2013-03-04 00:05:00,
2013-03-03 18:07:00,71.4,30.6,-100.00,South,180,2.0,5.0,22,0.00,,,0.00,meteohub,2013-03-04 00:07:00,
2013-03-03 18:11:00,71.2,30.4,-100.00,SSE,158,3.0,4.0,22,0.00,,,0.00,meteohub,2013-03-04 00:11:00,
2013-03-03 18:13:00,71.2,30.4,-100.00,South,180,2.0,4.0,22,0.00,,,0.00,meteohub,2013-03-04 00:13:00,
2013-03-03 18:17:00,70.9,31.3,-100.00,SSE,158,0.0,8.0,23,0.00,,,0.00,meteohub,2013-03-04 00:17:00,
2013-03-03 18:19:00,70.9,31.3,-100.00,SSW,203,4.0,8.0,23,0.00,,,0.00,meteohub,2013-03-04 00:19:00,
2013-03-03 18:21:00,70.7,31.1,-100.00,SSW,203,5.0,8.0,23,0.00,,,0.00,meteohub,2013-03-04 00:21:00,
2013-03-03 18:25:00,70.5,30.9,-100.00,South,180,5.0,8.0,23,0.00,,,0.00,meteohub,2013-03-04 00:25:00,
2013-03-03 18:28:00,70.3,30.7,-100.00,WSW,248,4.0,8.0,23,0.00,,,0.00,meteohub,2013-03-04 00:28:00,
2013-03-03 18:30:00,70.3,30.7,-100.00,SSE,158,6.0,8.0,23,0.00,,,0.00,meteohub,2013-03-04 00:30:00,
2013-03-03 18:32:00,70.2,30.6,-100.00,South,180,3.0,5.0,23,0.00,,,0.00,meteohub,2013-03-04 00:32:00,
2013-03-03 18:36:00,70.0,30.6,-100.00,West,270,0.0,6.0,23,0.00,,,0.00,meteohub,2013-03-04 00:36:00,
2013-03-03 18:38:00,69.8,30.4,-100.00,WSW,248,1.0,6.0,23,0.00,,,0.00,meteohub,2013-03-04 00:38:00,
2013-03-03 18:40:00,69.6,30.2,-100.00,SW,225,3.0,6.0,23,0.00,,,0.00,meteohub,2013-03-04 00:40:00,
2013-03-03 18:42:00,69.6,30.2,-100.00,SSW,203,5.0,6.0,23,0.00,,,0.00,meteohub,2013-03-04 00:42:00,
2013-03-03 18:46:00,69.4,30.0,-100.00,SSE,158,2.0,5.0,23,0.00,,,0.00,meteohub,2013-03-04 00:46:00,
2013-03-03 18:48:00,69.1,29.7,-100.00,SSW,203,4.0,5.0,23,0.00,,,0.00,meteohub,2013-03-04 00:48:00,
2013-03-03 18:50:00,69.1,29.7,-100.00,SSW,203,4.0,5.0,23,0.00,,,0.00,meteohub,2013-03-04 00:50:00,
2013-03-03 18:52:00,69.1,29.7,-100.00,SE,135,2.0,5.0,23,0.00,,,0.00,meteohub,2013-03-04 00:52:00,
2013-03-03 18:54:00,68.7,29.5,-100.00,East,90,2.0,5.0,23,0.00,,,0.00,meteohub,2013-03-04 00:54:00,
2013-03-03 18:58:00,68.5,30.4,-100.00,SE,135,4.0,5.0,24,0.00,,,0.00,meteohub,2013-03-04 00:58:00,
2013-03-03 19:02:00,68.5,30.4,-100.00,South,180,0.0,4.0,24,0.00,,,0.00,meteohub,2013-03-04 01:02:00,
2013-03-03 19:04:00,68.4,30.2,-100.00,WNW,293,1.0,4.0,24,0.00,,,0.00,meteohub,2013-03-04 01:04:00,
2013-03-03 19:08:00,68.2,30.0,-100.00,SW,225,5.0,5.0,24,0.00,,,0.00,meteohub,2013-03-04 01:08:00,
2013-03-03 19:12:00,67.8,29.7,-100.00,SSE,158,1.0,5.0,24,0.00,,,0.00,meteohub,2013-03-04 01:12:00,
2013-03-03 19:14:00,67.8,29.7,-100.00,SSW,203,4.0,5.0,24,0.00,,,0.00,meteohub,2013-03-04 01:14:00,
2013-03-03 19:17:00,67.6,29.5,-100.00,SSW,203,1.0,5.0,24,0.00,,,0.00,meteohub,2013-03-04 01:17:00,
2013-03-03 19:18:00,67.6,29.5,-100.00,South,180,1.0,5.0,24,0.00,,,0.00,meteohub,2013-03-04 01:18:00,
2013-03-03 19:22:00,67.5,29.5,-100.00,West,270,2.0,5.0,24,0.00,,,0.00,meteohub,2013-03-04 01:22:00,
2013-03-03 19:26:00,67.3,29.3,-100.00,SW,225,3.0,4.0,24,0.00,,,0.00,meteohub,2013-03-04 01:26:00,
2013-03-03 19:30:00,67.1,29.1,-100.00,South,180,2.0,3.0,24,0.00,,,0.00,meteohub,2013-03-04 01:30:00,
2013-03-03 19:32:00,67.1,29.1,-100.00,SSE,158,2.0,3.0,24,0.00,,,0.00,meteohub,2013-03-04 01:32:00,
2013-03-03 19:36:00,66.9,30.0,-100.00,SW,225,1.0,3.0,25,0.00,,,0.00,meteohub,2013-03-04 01:36:00,
2013-03-03 19:38:00,66.9,30.0,-100.00,South,180,2.0,3.0,25,0.00,,,0.00,meteohub,2013-03-04 01:38:00,
2013-03-03 19:42:00,66.7,29.8,-100.00,SSW,203,2.0,3.0,25,0.00,,,0.00,meteohub,2013-03-04 01:42:00,
2013-03-03 19:44:00,66.7,29.8,-100.00,SSE,158,2.0,3.0,25,0.00,,,0.00,meteohub,2013-03-04 01:44:00,
2013-03-03 19:50:00,66.7,29.8,-100.00,SSE,158,1.0,3.0,25,0.00,,,0.00,meteohub,2013-03-04 01:50:00,
2013-03-03 19:52:00,66.6,29.7,-100.00,West,270,0.0,3.0,25,0.00,,,0.00,meteohub,2013-03-04 01:52:00,
2013-03-03 19:54:00,66.4,29.5,-100.00,South,180,2.0,3.0,25,0.00,,,0.00,meteohub,2013-03-04 01:54:00,
2013-03-03 19:58:00,66.4,29.5,-100.00,South,180,1.0,3.0,25,0.00,,,0.00,meteohub,2013-03-04 01:58:00,
2013-03-03 20:02:00,66.2,29.3,-100.00,South,180,1.0,3.0,25,0.00,,,0.00,meteohub,2013-03-04 02:02:00,
2013-03-03 20:04:00,66.2,29.3,-100.00,South,180,0.0,3.0,25,0.00,,,0.00,meteohub,2013-03-04 02:04:00,
2013-03-03 20:10:00,66.0,29.1,-100.00,SSW,203,3.0,4.0,25,0.00,,,0.00,meteohub,2013-03-04 02:10:00,
2013-03-03 20:12:00,66.0,29.1,-100.00,South,180,3.0,4.0,25,0.00,,,0.00,meteohub,2013-03-04 02:12:00,
2013-03-03 20:14:00,66.0,29.1,-100.00,SSW,203,7.0,7.0,25,0.00,,,0.00,meteohub,2013-03-04 02:14:00,
2013-03-03 20:16:00,66.0,29.1,-100.00,SSE,158,2.0,4.0,25,0.00,,,0.00,meteohub,2013-03-04 02:16:00,
2013-03-03 20:20:00,65.8,28.9,-100.00,SW,225,4.0,7.0,25,0.00,,,0.00,meteohub,2013-03-04 02:20:00,
2013-03-03 20:22:00,65.8,28.9,-100.00,SSE,158,3.0,7.0,25,0.00,,,0.00,meteohub,2013-03-04 02:22:00,
2013-03-03 20:24:00,65.8,30.0,-100.00,SSE,158,2.0,7.0,26,0.00,,,0.00,meteohub,2013-03-04 02:24:00,
2013-03-03 20:26:00,65.7,29.8,-100.00,South,180,2.0,7.0,26,0.00,,,0.00,meteohub,2013-03-04 02:26:00,
2013-03-03 20:30:00,65.5,29.7,-100.00,SSW,203,2.0,4.0,26,0.00,,,0.00,meteohub,2013-03-04 02:30:00,
2013-03-03 20:32:00,65.5,29.7,-100.00,SSW,203,2.0,4.0,26,0.00,,,0.00,meteohub,2013-03-04 02:32:00,
2013-03-03 20:36:00,65.1,29.3,-100.00,South,180,0.0,4.0,26,0.00,,,0.00,meteohub,2013-03-04 02:36:00,
2013-03-03 20:38:00,65.1,29.3,-100.00,SSE,158,3.0,4.0,26,0.00,,,0.00,meteohub,2013-03-04 02:38:00,
2013-03-03 20:40:00,64.9,29.3,-100.00,SSE,158,1.0,2.0,26,0.00,,,0.00,meteohub,2013-03-04 02:40:00,
2013-03-03 20:42:00,64.9,29.3,-100.00,SSE,158,1.0,2.0,26,0.00,,,0.00,meteohub,2013-03-04 02:42:00,
2013-03-03 20:46:00,64.9,29.3,-100.00,South,180,2.0,3.0,26,0.00,,,0.00,meteohub,2013-03-04 02:46:00,
2013-03-03 20:47:00,64.9,29.3,-100.00,South,180,2.0,3.0,26,0.00,,,0.00,meteohub,2013-03-04 02:47:00,
2013-03-03 20:52:00,64.8,29.1,-100.00,South,180,1.0,3.0,26,0.00,,,0.00,meteohub,2013-03-04 02:52:00,
2013-03-03 20:57:00,64.6,28.9,-100.00,SW,225,2.0,3.0,26,0.00,,,0.00,meteohub,2013-03-04 02:57:00,
2013-03-03 21:01:00,64.6,28.9,-100.00,South,180,4.0,4.0,26,0.00,,,0.00,meteohub,2013-03-04 03:01:00,
2013-03-03 21:02:00,64.6,28.9,-100.00,South,180,4.0,4.0,26,0.00,,,0.00,meteohub,2013-03-04 03:02:00,
2013-03-03 21:07:00,64.2,29.5,-100.00,SW,225,1.0,4.0,27,0.00,,,0.00,meteohub,2013-03-04 03:07:00,
2013-03-03 21:11:00,64.2,29.5,-100.00,South,180,2.0,4.0,27,0.00,,,0.00,meteohub,2013-03-04 03:11:00,
2013-03-03 21:13:00,64.2,29.5,-100.00,South,180,2.0,4.0,27,0.00,,,0.00,meteohub,2013-03-04 03:13:00,
2013-03-03 21:17:00,64.2,29.5,-100.00,SSW,203,2.0,4.0,27,0.00,,,0.00,meteohub,2013-03-04 03:17:00,
2013-03-03 21:19:00,64.2,29.5,-100.00,South,180,4.0,4.0,27,0.00,,,0.00,meteohub,2013-03-04 03:19:00,
2013-03-03 21:21:00,64.0,29.3,-100.00,SSE,158,0.0,4.0,27,0.00,,,0.00,meteohub,2013-03-04 03:21:00,
2013-03-03 21:23:00,64.0,29.3,-100.00,SW,225,4.0,4.0,27,0.00,,,0.00,meteohub,2013-03-04 03:23:00,
2013-03-03 21:27:00,64.0,29.3,-100.00,SW,225,2.0,4.0,27,0.00,,,0.00,meteohub,2013-03-04 03:27:00,
2013-03-03 21:29:00,64.0,29.3,-100.00,South,180,3.0,4.0,27,0.00,,,0.00,meteohub,2013-03-04 03:29:00,
2013-03-03 21:31:00,64.0,29.3,-100.00,South,180,3.0,4.0,27,0.00,,,0.00,meteohub,2013-03-04 03:31:00,
2013-03-03 21:33:00,64.0,29.3,-100.00,South,180,3.0,4.0,27,0.00,,,0.00,meteohub,2013-03-04 03:33:00,
2013-03-03 21:35:00,64.0,29.3,-100.00,SSW,203,0.0,4.0,27,0.00,,,0.00,meteohub,2013-03-04 03:35:00,
2013-03-03 21:37:00,64.0,29.3,-100.00,ESE,113,6.0,6.0,27,0.00,,,0.00,meteohub,2013-03-04 03:37:00,
2013-03-03 21:39:00,64.0,29.3,-100.00,SSE,158,2.0,4.0,27,0.00,,,0.00,meteohub,2013-03-04 03:39:00,
2013-03-03 21:41:00,64.0,29.3,-100.00,South,180,3.0,6.0,27,0.00,,,0.00,meteohub,2013-03-04 03:41:00,
2013-03-03 21:45:00,64.0,29.3,-100.00,SSW,203,3.0,6.0,27,0.00,,,0.00,meteohub,2013-03-04 03:45:00,
2013-03-03 21:47:00,64.0,29.3,-100.00,SSW,203,3.0,6.0,27,0.00,,,0.00,meteohub,2013-03-04 03:47:00,
2013-03-03 21:53:00,63.7,29.1,-100.00,South,180,2.0,6.0,27,0.00,,,0.00,meteohub,2013-03-04 03:53:00,
2013-03-03 21:57:00,63.7,29.1,-100.00,SSW,203,4.0,5.0,27,0.00,,,0.00,meteohub,2013-03-04 03:57:00,
2013-03-03 21:59:00,63.7,29.1,-100.00,South,180,0.0,5.0,27,0.00,,,0.00,meteohub,2013-03-04 03:59:00,
2013-03-03 22:01:00,63.7,29.1,-100.00,South,180,2.0,5.0,27,0.00,,,0.00,meteohub,2013-03-04 04:01:00,
2013-03-03 22:05:00,63.7,30.0,-100.00,SW,225,3.0,5.0,28,0.00,,,0.00,meteohub,2013-03-04 04:05:00,
2013-03-03 22:07:00,63.5,29.8,-100.00,SW,225,2.0,5.0,28,0.00,,,0.00,meteohub,2013-03-04 04:07:00,
2013-03-03 22:09:00,63.3,29.7,-100.00,SSW,203,0.0,5.0,28,0.00,,,0.00,meteohub,2013-03-04 04:09:00,
2013-03-03 22:13:00,63.3,29.7,-100.00,ESE,113,4.0,4.0,28,0.00,,,0.00,meteohub,2013-03-04 04:13:00,
2013-03-03 22:15:00,63.1,30.4,-100.00,South,180,1.0,4.0,29,0.00,,,0.00,meteohub,2013-03-04 04:15:00,
2013-03-03 22:17:00,63.1,30.4,-100.00,South,180,1.0,4.0,29,0.00,,,0.00,meteohub,2013-03-04 04:17:00,
2013-03-03 22:21:00,63.1,30.4,-100.00,South,180,2.0,4.0,29,0.00,,,0.00,meteohub,2013-03-04 04:21:00,
2013-03-03 22:23:00,63.0,30.2,-100.00,South,180,4.0,4.0,29,0.00,,,0.00,meteohub,2013-03-04 04:23:00,
2013-03-03 22:29:00,62.8,30.9,-100.00,SE,135,3.0,4.0,30,0.00,,,0.00,meteohub,2013-03-04 04:29:00,
2013-03-03 22:31:00,62.6,30.7,-100.00,East,90,4.0,4.0,30,0.00,,,0.00,meteohub,2013-03-04 04:31:00,
2013-03-03 22:33:00,62.4,30.6,-100.00,SW,225,2.0,4.0,30,0.00,,,0.00,meteohub,2013-03-04 04:33:00,
2013-03-03 22:35:00,62.4,31.5,-100.00,SW,225,3.0,4.0,31,0.00,,,0.00,meteohub,2013-03-04 04:35:00,
2013-03-03 22:37:00,62.4,31.5,-100.00,SSW,203,4.0,4.0,31,0.00,,,0.00,meteohub,2013-03-04 04:37:00,
2013-03-03 22:39:00,62.4,31.5,-100.00,SW,225,5.0,5.0,31,0.00,,,0.00,meteohub,2013-03-04 04:39:00,
2013-03-03 22:43:00,61.9,31.6,-100.00,SSE,158,4.0,5.0,32,0.00,,,0.00,meteohub,2013-03-04 04:43:00,
2013-03-03 22:45:00,61.9,31.6,-100.00,SSE,158,2.0,5.0,32,0.00,,,0.00,meteohub,2013-03-04 04:45:00,
2013-03-03 22:47:00,61.9,32.5,-100.00,South,180,2.0,5.0,33,0.00,,,0.00,meteohub,2013-03-04 04:47:00,
2013-03-03 22:49:00,61.7,32.4,-100.00,SSW,203,2.0,5.0,33,0.00,,,0.00,meteohub,2013-03-04 04:49:00,
2013-03-03 22:53:00,61.5,32.9,-100.00,South,180,1.0,5.0,34,0.00,,,0.00,meteohub,2013-03-04 04:53:00,
2013-03-03 22:55:00,61.5,32.9,-100.00,SE,135,5.0,6.0,34,0.00,,,0.00,meteohub,2013-03-04 04:55:00,
2013-03-03 22:57:00,61.5,32.9,-100.00,South,180,2.0,6.0,34,0.00,,,0.00,meteohub,2013-03-04 04:57:00,
2013-03-03 22:59:00,61.5,32.9,-100.00,South,180,2.0,6.0,34,0.00,,,0.00,meteohub,2013-03-04 04:59:00,
2013-03-03 23:01:00,61.5,33.6,-100.00,South,180,4.0,6.0,35,0.00,,,0.00,meteohub,2013-03-04 05:01:00,
2013-03-03 23:02:00,61.5,33.6,-100.00,SE,135,1.0,6.0,35,0.00,,,0.00,meteohub,2013-03-04 05:02:00,
2013-03-03 23:05:00,61.3,33.4,-100.00,SSE,158,1.0,6.0,35,0.00,,,0.00,meteohub,2013-03-04 05:05:00,
2013-03-03 23:12:00,61.2,34.0,-100.00,SSE,158,2.0,5.0,36,0.00,,,0.00,meteohub,2013-03-04 05:12:00,
2013-03-03 23:14:00,61.2,34.0,-100.00,SSW,203,2.0,5.0,36,0.00,,,0.00,meteohub,2013-03-04 05:14:00,
2013-03-03 23:17:00,61.0,33.8,-100.00,SSE,158,0.0,4.0,36,0.00,,,0.00,meteohub,2013-03-04 05:17:00,
2013-03-03 23:18:00,61.0,33.8,-100.00,SSW,203,0.0,4.0,36,0.00,,,0.00,meteohub,2013-03-04 05:18:00,
2013-03-03 23:20:00,61.0,33.8,-100.00,South,180,2.0,4.0,36,0.00,,,0.00,meteohub,2013-03-04 05:20:00,
2013-03-03 23:22:00,60.6,34.2,-100.00,SSW,203,1.0,3.0,37,0.00,,,0.00,meteohub,2013-03-04 05:22:00,
2013-03-03 23:26:00,60.6,34.2,-100.00,SE,135,0.0,3.0,37,0.00,,,0.00,meteohub,2013-03-04 05:26:00,
2013-03-03 23:28:00,60.4,34.7,-100.00,SE,135,0.0,3.0,38,0.00,,,0.00,meteohub,2013-03-04 05:28:00,
2013-03-03 23:30:00,60.4,34.7,-100.00,South,180,1.0,2.0,38,0.00,,,0.00,meteohub,2013-03-04 05:30:00,
2013-03-03 23:32:00,60.4,34.7,-100.00,South,180,1.0,2.0,38,0.00,,,0.00,meteohub,2013-03-04 05:32:00,
2013-03-03 23:36:00,60.1,34.3,-100.00,SSE,158,0.0,2.0,38,0.00,,,0.00,meteohub,2013-03-04 05:36:00,
2013-03-03 23:42:00,59.7,35.4,-100.00,SW,225,3.0,3.0,40,0.00,,,0.00,meteohub,2013-03-04 05:42:00,
2013-03-03 23:46:00,59.5,35.8,-100.00,SE,135,1.0,5.0,41,0.00,,,0.00,meteohub,2013-03-04 05:46:00,
2013-03-03 23:48:00,59.5,35.8,-100.00,SE,135,1.0,5.0,41,0.00,,,0.00,meteohub,2013-03-04 05:48:00,
2013-03-03 23:52:00,59.4,35.6,-100.00,SSE,158,0.0,5.0,41,0.00,,,0.00,meteohub,2013-03-04 05:52:00,
2013-03-03 23:58:00,59.2,36.1,-100.00,SSE,158,1.0,5.0,42,0.00,,,0.00,meteohub,2013-03-04 05:58:00,